TimePST,TemperatureF,Dew PointF,Humidity,Sea Level PressureIn,VisibilityMPH,Wind Direction,Wind SpeedMPH,Gust SpeedMPH,PrecipitationIn,Events,Conditions,WindDirDegrees,DateUTC
12:54 AM,37.0,34.0,89,30.22,10.0,North,3.5,-,N/A,,Clear,10,2013-02-12 08:54:00
1:54 AM,37.0,33.1,86,30.24,10.0,NNE,4.6,-,N/A,,Clear,30,2013-02-12 09:54:00
2:38 AM,35.6,33.8,93,30.27,1.8,Calm,Calm,-,N/A,,Clear,0,2013-02-12 10:38:00
2:52 AM,35.6,35.6,100,30.27,1.2,Calm,Calm,-,N/A,,Scattered Clouds,0,2013-02-12 10:52:00
2:54 AM,37.0,35.1,93,30.24,1.2,Calm,Calm,-,N/A,,Scattered Clouds,0,2013-02-12 10:54:00
3:02 AM,37.4,37.4,100,30.27,1.5,Calm,Calm,-,N/A,,Mostly Cloudy,0,2013-02-12 11:02:00
3:15 AM,37.4,35.6,93,30.27,3.0,Calm,Calm,-,N/A,,Mostly Cloudy,0,2013-02-12 11:15:00
3:31 AM,37.4,35.6,93,30.27,6.0,NNE,4.6,-,N/A,,Scattered Clouds,20,2013-02-12 11:31:00
3:42 AM,37.4,35.6,93,30.27,9.0,NNE,5.8,-,N/A,,Mostly Cloudy,20,2013-02-12 11:42:00
3:54 AM,36.0,34.0,93,30.25,10.0,NNE,5.8,-,N/A,,Mostly Cloudy,20,2013-02-12 11:54:00
4:07 AM,37.4,35.6,93,30.28,10.0,NNE,3.5,-,N/A,,Overcast,20,2013-02-12 12:07:00
4:30 AM,35.6,33.8,93,30.27,10.0,Calm,Calm,-,N/A,,Overcast,0,2013-02-12 12:30:00
4:54 AM,36.0,33.1,89,30.25,10.0,North,5.8,-,N/A,,Mostly Cloudy,10,2013-02-12 12:54:00
5:02 AM,35.6,32.0,87,30.28,10.0,North,6.9,-,N/A,,Scattered Clouds,360,2013-02-12 13:02:00
5:54 AM,37.0,33.1,86,30.27,10.0,NNE,4.6,-,N/A,,Clear,20,2013-02-12 13:54:00
6:54 AM,34.0,30.9,89,30.30,10.0,NNE,5.8,-,N/A,,Clear,20,2013-02-12 14:54:00
7:54 AM,35.1,33.1,92,30.33,9.0,Calm,Calm,-,N/A,,Clear,0,2013-02-12 15:54:00
8:54 AM,44.1,39.0,82,30.35,10.0,Calm,Calm,-,N/A,,Clear,0,2013-02-12 16:54:00
9:54 AM,48.0,41.0,77,30.35,10.0,Calm,Calm,-,N/A,,Clear,0,2013-02-12 17:54:00
10:54 AM,54.0,39.0,57,30.35,10.0,ESE,10.4,-,N/A,,Clear,120,2013-02-12 18:54:00
11:54 AM,57.0,39.0,51,30.34,10.0,East,10.4,-,N/A,,Clear,100,2013-02-12 19:54:00
12:54 PM,61.0,39.0,44,30.31,10.0,East,11.5,-,N/A,,Clear,100,2013-02-12 20:54:00
1:54 PM,60.1,39.9,47,30.30,10.0,East,9.2,-,N/A,,Clear,90,2013-02-12 21:54:00
2:54 PM,61.0,39.9,46,30.30,10.0,SE,5.8,-,N/A,,Clear,130,2013-02-12 22:54:00
3:54 PM,59.0,39.9,49,30.29,10.0,WSW,4.6,-,N/A,,Clear,240,2013-02-12 23:54:00
4:54 PM,57.9,41.0,53,30.28,10.0,SW,3.5,-,N/A,,Clear,230,2013-02-13 00:54:00
5:54 PM,53.1,41.0,64,30.28,10.0,Calm,Calm,-,N/A,,Clear,0,2013-02-13 01:54:00
6:54 PM,46.9,37.9,71,30.29,10.0,Calm,Calm,-,N/A,,Clear,0,2013-02-13 02:54:00
7:54 PM,42.1,36.0,79,30.29,10.0,Calm,Calm,-,N/A,,Clear,0,2013-02-13 03:54:00
8:54 PM,39.9,36.0,86,30.30,9.0,Calm,Calm,-,N/A,,Clear,0,2013-02-13 04:54:00
9:54 PM,37.0,35.1,93,30.30,8.0,ESE,3.5,-,N/A,,Clear,120,2013-02-13 05:54:00
10:54 PM,37.9,37.0,97,30.30,8.0,Calm,Calm,-,N/A,,Clear,0,2013-02-13 06:54:00
11:54 PM,37.0,35.1,93,30.31,7.0,Calm,Calm,-,N/A,,Clear,0,2013-02-13 07:54:00